Regional Weather Roundup
Issued by NWS Sioux Falls, SD

Home | Current Version | Previous Version | Text Only | Print | Product List | Glossary Off
Versions: 1 2 3 4 5 6 7 8 9 10 11 12 13 14 15 16 17 18 19 20 21 22 23 24 25 26 27 28 29 30 31 32 33 34 35 36 37 38 39 40 41 42 43 44 45 46 47 48 49 50

000
ASUS43 KFSD 021602
RWRFSD

WEATHER ROUNDUP FOR SE SOUTH DAKOTA/SW MINNESOTA/NW IOWA
NATIONAL WEATHER SERVICE SIOUX FALLS SD
1100 AM CDT WED SEP 02 2015

NOTE: "FAIR" INDICATES FEW OR NO CLOUDS BELOW 12,000 FEET WITH NO
SIGNIFICANT WEATHER AND OR OBSTRUCTIONS TO VISIBILITY.


SDZ038>040-050-052>070-021700-
SOUTHEAST SOUTH DAKOTA

CITY           SKY/WX    TMP DP  RH WIND       PRES   REMARKS
BROOKINGS      SUNNY     75  68  78 SE13      29.86F
CHAMBERLAIN    MOSUNNY   79  67  67 S3        29.79F
HURON          SUNNY     78  69  73 SE8       29.79F
MADISON        FAIR      75  75 100 SE12      29.85F
MITCHELL       SUNNY     79  70  74 SE12      29.81S
SIOUX FALLS    MOSUNNY   79  70  74 S8        29.86S
WINNER         FAIR      83  61  47 S9        29.82R
YANKTON        SUNNY     79  70  73 SE10      29.83S
$$

MNZ071-072-080-081-089-090-097-098-021700-
SOUTHWEST MINNESOTA

CITY           SKY/WX    TMP DP  RH WIND       PRES   REMARKS
FAIRMONT       SUNNY     79  64  61 SW16      29.89S
JACKSON        SUNNY     77  70  78 S16G22    29.91S
LUVERNE        SUNNY     79  70  73 S9        29.88S
MARSHALL       SUNNY     79  66  65 SW10      29.86S
MONTEVIDEO     SUNNY     81  70  69 SE7       29.86S
PIPESTONE      SUNNY     75  70  83 S9        29.88S
REDWOOD FALLS  MOSUNNY   79  71  76 S8        29.86S
TRACY          SUNNY     78  71  79 S12       29.86S
WINDOM         SUNNY     79  70  73 S10G18    29.88F
WORTHINGTON    SUNNY     77  68  73 S15       29.89S
$$

IAZ001>003-012>014-020>022-031-032-NEZ013-014-SDZ071-021700-
NORTHWEST IOWA

CITY           SKY/WX    TMP DP  RH WIND       PRES   REMARKS
DENISON        SUNNY     79  70  73 S17G25    29.91S
ESTHERVILLE    SUNNY     77  69  76 S16G23    29.90F
SIOUX CITY     SUNNY     80  69  69 S13       29.88F
SPENCER        MOSUNNY   80  69  69 S17G23    29.91S
$$

ABBREVIATIONS USED IN REMARKS
   TC - TEMPERATURE IN CELSIUS
  WCI - WIND CHILL INDEX
   HX - HEAT INDEX
  VSB - VISIBILITY




USA.gov is the U.S. government's official web portal to all federal, state and local government web resources and services.